Regional Weather Roundup
Issued by NWS

Home | Current Version | Previous Version | Text Only | Print | Product List | Glossary Off
Versions: 1 2 3 4 5 6 7 8 9 10 11 12 13 14 15 16 17 18 19 20 21 22 23 24 25 26 27 28 29 30 31 32 33 34 35 36 37 38 39 40 41 42 43 44 45 46 47 48 49 50

000
ASUS43 KLSX 020859
RWRMO

WEATHER SUMMARY FOR MISSOURI
NATIONAL WEATHER SERVICE SPRINGFIELD MO
400 AM CDT SUN AUG 02 2015

NOTE: "FAIR" INDICATES FEW OR NO CLOUDS BELOW 12,000 FEET WITH NO
       SIGNIFICANT WEATHER AND/OR OBSTRUCTIONS TO VISIBILITY.
       CURRENT SKY AND/OR WEATHER CONDITIONS ARE NOT AVAILABLE FOR
       CHILLICOTHE AND FARMINGTON.

MOZ001>031-035>038-043-044-053-054-021000-
...NORTHERN AND WESTERN MISSOURI...

CITY           SKY/WX    TMP DP  RH WIND       PRES   REMARKS
KANSAS CTY INT CLEAR     69  66  90 S7        29.92F
KANSAS C DTWN  CLEAR     75  67  76 SW7       29.91F
LEE`S SUMMIT   PTCLDY    72  66  81 SW9       29.94F
ST JOSEPH      CLEAR     71  66  84 S6        29.91F
CHILLICOTHE      N/A     68  63  84 SE3       29.93S
KIRKSVILLE     CLEAR     68  61  78 S7        29.93F

$$
MOZ066>068-077>081-088>096-101>105-021000-
...SOUTHWEST MISSOURI...

CITY           SKY/WX    TMP DP  RH WIND       PRES   REMARKS
SPRINGFIELD    PTCLDY    70  65  84 S6        29.98F
JOPLIN         PTCLDY    71  66  84 SE3       29.97F

$$
MOZ032>034-039>042-045>050-055>058-069>072-021000-
...CENTRAL MISSOURI...

CITY           SKY/WX    TMP DP  RH WIND       PRES   REMARKS
COLUMBIA       CLEAR     68  66  93 SE7       29.95F
JEFFERSON CITY PTCLDY    68  66  93 SE5       29.95S
ROLLA          PTCLDY    69  65  86 S8        29.96F
SEDALIA        CLEAR     67  63  87 S7        29.95F
WHITEMAN AFB   CLEAR     66  64  94 S6        29.93F
WARRENSBURG    CLEAR     66  63  88 S5        29.93F
OSAGE BEACH    CLEAR     68  64  88 SE3       29.96F

$$
MOZ051-052-059>065-021000-
...EAST CENTRAL MISSOURI...

CITY           SKY/WX    TMP DP  RH WIND       PRES   REMARKS
ST LOUIS INTL  MOCLDY    79  70  74 SW5       29.96S
SPIRIT OF STL  MOCLDY    74  68  81 CALM      29.94F
ST CHARLES     MOCLDY    75  71  87 CALM      29.94F

$$
MOZ072>076-082>087-097>100-106>115-021000-
...SOUTH CENTRAL AND SOUTHEAST MISSOURI...

CITY           SKY/WX    TMP DP  RH WIND       PRES   REMARKS
CAPE GIRARDEAU CLEAR     71  69  93 CALM      29.95F
FARMINGTON     MOCLDY    72  70  94 CALM      30.02S
POPLAR BLUFF   PTCLDY    73  71  93 CALM      29.95S
WEST PLAINS    CLEAR     68  64  87 CALM      30.01F

$$


USA.gov is the U.S. government's official web portal to all federal, state and local government web resources and services.